Temp
4 4 3 3 3 3 3 3 3 3 3 3 3 3 3 3 3 3 2 2 2 1 1 0 -0 -1 -1 -1 -1 -1 -1 -1 -1 -0 0 0 1 1
4 4 4 3 3 3 3 3 3 3 3 3 2 2 2 2 2 2 2 2 1 1 -0 -0 -1 -1 -1 -1 -1 -2 -2 -1 -1 -1 -0 -0 -0 -0
3 3 3 3 3 3 2 2 2 2 3 2 2 1 2 1 2 1 1 1 1 0 -0 -1 -1 -0 -1 -1 -1 -1 -2 -2 -1 -1 -1 -1 -1 -1
3 3 3 2 2 2 2 2 2 2 2 2 2 1 1 0 0 1 1 1 0 -0 -1 -1 -1 0 -1 -1 -2 -3 -2 -2 -1 -1 -0 -1 -2 -2
3 2 2 2 2 2 1 1 1 1 1 2 2 1 1 0 -0 0 0 -0 -1 -1 -1 -1 -1 -1 -2 -1 -2 -2 -2 -2 -2 -1 -2 -1 -1 -2
2 2 2 2 2 1 0 -0 1 0 0 1 1 1 0 0 -0 -0 -1 -1 -1 -1 -1 -2 -1 -2 -1 -2 -2 -3 -2 -2 -2 -2 -2 -2 -3 -3
2 2 2 1 1 1 0 -1 -0 -0 -0 -0 -0 -0 -0 0 -0 -1 0 -1 -1 -1 -1 -1 -2 -2 -2 -2 -2 -2 -3 -2 -3 -3 -3 -4 -4 -4
2 1 1 1 0 0 0 -0 -1 -0 -1 -0 -0 -1 -0 -1 -1 -1 -0 -1 -1 -1 -1 -2 -2 -2 -2 -2 -2 -3 -3 -3 -4 -4 -4 -5 -5 -6
2 1 1 1 0 0 -0 0 -1 -1 -0 -0 -1 -1 -1 -1 -1 -1 0 -1 -1 -2 -2 -2 -2 -3 -3 -3 -3 -4 -4 -4 -5 -5 -5 -6 -7 -7
1 1 1 1 1 0 -0 -0 0 -0 -0 -0 -1 -1 -1 -0 -0 -0 -1 -1 -1 -1 -2 -2 -3 -3 -4 -4 -4 -5 -5 -6 -6 -7 -7 -7 -7 -8
1 1 1 1 1 0 -0 -0 0 -0 -0 -0 -1 -1 -1 -1 -1 -1 -1 -2 -2 -2 -2 -3 -4 -4 -5 -6 -6 -6 -7 -7 -7 -8 -8 -8 -8 -8
1 1 1 1 1 1 1 0 0 -0 -0 -1 -1 -0 -1 -1 -1 -1 -2 -2 -2 -3 -4 -4 -4 -5 -6 -7 -7 -7 -8 -8 -8 -9 -9 -9 -9 -8
1 1 1 2 1 0 1 0 0 -0 -0 -1 -1 -1 -1 -2 -2 -2 -3 -3 -3 -3 -4 -5 -6 -6 -7 -7 -9 -9 -9 -9 -9 -9 -9 -9 -9 -9
1 1 1 1 0 1 1 1 -1 -0 -1 -1 -1 -2 -2 -2 -3 -3 -3 -4 -4 -5 -6 -6 -7 -8 -8 -8 -8 -9 -9 -9 -9 -9 -8 -8 -9 -9
1 1 1 0 0 0 0 -1 -0 -1 -1 -2 -2 -2 -3 -4 -4 -4 -4 -6 -6 -7 -7 -8 -9 -9 -9 -9 -9 -9 -9 -9 -8 -8 -8 -9 -9 -10
0 0 1 0 0 -1 -1 -1 -1 -2 -2 -2 -3 -4 -4 -5 -5 -6 -6 -7 -7 -8 -8 -9 -9 -9 -10 -10 -10 -9 -9 -9 -9 -9 -9 -10 -11 -13
-1 0 -0 -0 -1 -1 -1 -2 -2 -2 -3 -4 -4 -5 -5 -6 -6 -7 -8 -8 -8 -9 -9 -10 -10 -10 -10 -10 -10 -10 -10 -10 -10 -10 -10 -10 -12 -14
-1 -1 -1 -1 -1 -1 -2 -2 -3 -4 -5 -5 -5 -5 -6 -7 -8 -8 -9 -10 -10 -10 -10 -10 -10 -10 -10 -11 -11 -10 -10 -10 -11 -11 -12 -12 -12 -15
-1 -1 -2 -2 -2 -2 -2 -3 -4 -5 -5 -6 -6 -7 -8 -9 -10 -10 -11 -11 -11 -11 -10 -10 -10 -10 -10 -10 -12 -12 -11 -12 -11 -12 -14 -15 -15 -16
-2 -2 -3 -3 -3 -4 -5 -5 -5 -6 -6 -7 -8 -9 -10 -11 -11 -11 -11 -11 -11 -11 -10 -11 -11 -11 -11 -11 -11 -12 -14 -13 -14 -15 -16 -16 -17 -18
-3 -3 -4 -4 -5 -5 -6 -6 -7 -7 -8 -8 -10 -11 -12 -12 -12 -12 -11 -11 -11 -11 -11 -11 -12 -12 -11 -12 -12 -13 -15 -18 -19 -19 -19 -18 -18 -18
-5 -6 -6 -6 -7 -7 -7 -7 -7 -8 -10 -11 -12 -13 -12 -12 -12 -12 -11 -11 -12 -12 -12 -12 -12 -13 -13 -13 -14 -15 -15 -17 -19 -20 -21 -22 -21 -20
-7 -7 -7 -7 -7 -7 -8 -9 -10 -11 -12 -12 -12 -13 -13 -12 -12 -12 -12 -12 -12 -13 -13 -13 -14 -14 -14 -15 -16 -17 -18 -19 -19 -19 -20 -21 -21 -21
Height
3098 3100 3102 3104 3107 3109 3111 3113 3114 3116 3118 3119 3119 3119 3119 3119 3119 3119 3119 3117 3115 3113 3111 3109 3108 3106 3104 3101 3097 3091 3088 3085 3082 3079 3075 3070 3066 3061
3092 3094 3096 3098 3101 3103 3105 3107 3109 3111 3112 3113 3112 3113 3114 3113 3113 3113 3111 3109 3108 3107 3106 3104 3102 3099 3096 3092 3088 3084 3081 3078 3074 3070 3065 3061 3056 3050
3086 3088 3090 3092 3095 3098 3099 3101 3103 3105 3107 3108 3108 3107 3108 3107 3107 3105 3104 3104 3102 3101 3100 3098 3095 3091 3088 3085 3081 3076 3070 3068 3064 3059 3055 3051 3047 3041
3080 3082 3084 3086 3090 3092 3094 3097 3098 3099 3101 3102 3103 3103 3103 3101 3100 3098 3097 3097 3096 3096 3094 3091 3087 3083 3079 3075 3072 3066 3062 3059 3055 3051 3045 3040 3035 3030
3073 3076 3078 3080 3083 3086 3087 3090 3092 3092 3093 3095 3098 3097 3096 3095 3094 3092 3090 3088 3087 3086 3084 3082 3078 3074 3070 3066 3063 3058 3054 3049 3045 3040 3036 3030 3024 3020
3064 3069 3071 3074 3077 3078 3079 3081 3084 3085 3085 3087 3090 3091 3090 3090 3088 3087 3084 3082 3079 3078 3075 3072 3070 3067 3062 3056 3053 3049 3043 3039 3035 3030 3025 3019 3014 3010
3057 3062 3065 3067 3069 3070 3071 3074 3075 3076 3077 3078 3081 3083 3083 3082 3081 3079 3076 3074 3071 3069 3066 3064 3061 3056 3051 3047 3042 3039 3036 3029 3025 3020 3016 3010 3005 3000
3049 3054 3057 3058 3060 3062 3064 3065 3067 3068 3070 3069 3070 3071 3073 3073 3072 3072 3067 3065 3058 3059 3057 3055 3050 3046 3043 3038 3033 3030 3026 3020 3016 3010 3005 2999 2994 2989
3041 3045 3047 3049 3052 3055 3056 3058 3058 3060 3060 3061 3060 3062 3061 3063 3062 3059 3057 3054 3050 3048 3046 3043 3041 3035 3032 3028 3024 3020 3015 3011 3006 3000 2994 2989 2983 2978
3032 3034 3037 3041 3042 3046 3048 3049 3050 3050 3051 3052 3051 3052 3053 3053 3049 3048 3045 3042 3039 3038 3035 3033 3029 3026 3022 3018 3013 3010 3006 3001 2997 2991 2985 2979 2974 2968
3021 3025 3028 3032 3033 3034 3038 3040 3040 3040 3041 3043 3043 3043 3042 3041 3039 3035 3034 3031 3029 3027 3026 3022 3020 3016 3013 3009 3005 3001 2996 2992 2987 2981 2976 2971 2964 2958
3010 3015 3019 3024 3026 3027 3030 3030 3030 3032 3034 3034 3034 3032 3031 3030 3028 3024 3023 3020 3019 3018 3015 3013 3010 3007 3005 3002 2997 2992 2987 2983 2978 2973 2968 2961 2954 2947
3003 3005 3009 3012 3016 3019 3020 3021 3023 3023 3023 3022 3019 3019 3019 3019 3017 3015 3013 3012 3009 3008 3007 3005 3003 2999 2995 2992 2989 2984 2979 2975 2970 2965 2958 2951 2944 2935
2992 2995 2999 3000 3005 3009 3011 3011 3009 3011 3011 3011 3012 3010 3009 3009 3008 3007 3005 3003 3001 3000 2999 2997 2994 2991 2987 2984 2980 2976 2972 2966 2959 2953 2946 2939 2931 2923
2981 2985 2987 2989 2993 2995 3000 3004 3002 3002 3003 3002 3001 3002 3001 3000 2999 2996 2996 2996 2994 2993 2991 2989 2986 2983 2980 2974 2970 2964 2959 2953 2946 2940 2933 2925 2918 2909
2969 2972 2976 2979 2982 2986 2990 2992 2991 2992 2992 2992 2992 2992 2993 2993 2992 2992 2990 2989 2988 2986 2985 2983 2980 2976 2971 2967 2962 2956 2949 2942 2934 2927 2920 2912 2903 2895
2954 2959 2966 2969 2969 2975 2978 2980 2982 2982 2982 2982 2984 2985 2985 2985 2984 2985 2984 2983 2982 2978 2976 2974 2972 2969 2965 2959 2954 2947 2941 2933 2925 2918 2910 2901 2892 2883
2948 2951 2957 2958 2960 2965 2968 2971 2972 2972 2973 2975 2976 2977 2978 2978 2977 2976 2977 2976 2974 2973 2971 2968 2967 2961 2957 2951 2944 2936 2930 2922 2914 2907 2898 2889 2884 2875
2943 2946 2948 2949 2953 2957 2960 2963 2964 2966 2965 2968 2968 2970 2971 2970 2970 2970 2971 2971 2970 2966 2963 2960 2957 2952 2946 2941 2936 2926 2919 2912 2904 2897 2888 2877 2869 2864
2934 2937 2939 2942 2945 2951 2953 2955 2958 2959 2958 2960 2963 2964 2965 2966 2966 2966 2966 2965 2963 2960 2956 2952 2949 2942 2936 2930 2923 2916 2906 2899 2891 2884 2877 2868 2860 2855
2928 2930 2933 2936 2939 2942 2945 2947 2950 2951 2953 2953 2955 2957 2960 2961 2963 2962 2962 2961 2958 2955 2951 2946 2941 2935 2927 2921 2914 2908 2902 2892 2883 2875 2868 2857 2850 2842
2922 2925 2928 2930 2934 2936 2939 2941 2944 2944 2947 2948 2951 2952 2954 2956 2956 2958 2955 2953 2953 2949 2943 2937 2932 2926 2919 2913 2906 2899 2892 2886 2880 2875 2868 2857 2844 2835
2918 2921 2923 2926 2928 2931 2933 2934 2937 2939 2941 2943 2948 2947 2949 2951 2952 2950 2948 2946 2944 2941 2935 2929 2924 2918 2911 2905 2898 2891 2884 2878 2871 2866 2865 2856 2848 2842
Wind_Speed
27 26 25 26 27 27 27 27 27 26 23 23 24 22 23 21 22 23 24 26 27 26 26 28 32 35 36 38 41 42 41 39 39 42 44 42 43 46
26 25 24 24 24 25 26 26 26 25 24 22 23 23 22 20 21 24 27 29 29 28 28 30 28 34 37 37 40 37 41 40 42 44 43 45 47 48
26 23 22 23 23 24 24 25 25 24 23 21 22 23 22 23 24 25 30 30 30 31 31 34 38 41 38 43 40 39 42 42 43 47 47 49 49 49
27 26 23 22 22 21 21 23 24 24 23 22 24 24 22 25 26 30 32 32 32 34 33 38 35 38 40 47 44 42 46 45 49 45 48 50 47 47
29 27 25 24 23 26 25 25 26 26 27 26 26 26 24 27 30 31 33 33 33 36 34 42 40 39 41 46 49 45 45 49 42 50 48 49 50 50
32 30 28 26 24 30 28 26 28 29 30 29 29 29 30 31 33 32 34 36 40 38 38 37 42 45 45 51 50 47 44 44 47 48 49 49 49 51
34 32 31 30 28 29 27 31 32 33 33 32 31 30 34 35 35 37 37 41 40 42 42 43 42 49 49 50 45 42 47 49 45 46 47 49 52 53
33 34 32 28 27 29 34 33 37 37 37 39 39 38 43 39 37 40 40 45 41 38 40 42 46 47 47 46 47 47 47 45 45 47 49 51 52 51
34 35 33 29 31 32 35 35 41 40 45 44 49 50 42 41 41 43 43 47 43 42 45 41 43 45 44 44 43 41 44 46 46 48 50 48 48 47
33 33 31 35 33 32 34 40 39 41 43 43 39 37 41 44 46 50 46 42 43 49 44 39 41 42 43 40 40 42 44 45 45 44 44 45 48 50
33 32 34 36 38 31 35 36 41 39 36 34 38 43 45 49 50 45 47 47 48 39 40 39 39 39 37 37 39 41 42 41 41 42 44 46 50 51
33 34 36 34 38 33 36 32 41 39 40 44 43 43 47 51 51 54 47 41 35 37 36 36 35 36 35 36 37 37 37 39 41 44 46 47 50 54
41 35 37 36 36 37 40 39 36 40 43 48 50 42 43 45 44 41 34 31 33 34 34 34 35 36 35 34 32 35 37 40 42 44 47 51 54 57
40 40 37 36 34 36 39 41 45 43 48 45 43 44 40 36 31 30 29 29 29 31 33 34 34 33 33 34 36 38 38 40 45 49 53 54 55 56
41 42 40 35 38 37 35 44 42 33 36 37 34 34 31 29 29 28 28 26 28 30 32 30 29 31 34 37 39 42 45 48 51 52 53 55 57 56
47 41 38 35 34 42 35 42 37 34 32 30 32 29 28 26 26 26 26 27 28 29 27 27 30 33 34 37 41 45 49 51 53 54 56 57 57 54
37 33 44 34 29 34 30 31 32 31 26 25 26 26 26 27 27 26 26 27 26 26 27 30 32 34 38 41 44 46 48 50 52 54 56 57 57 52
34 32 28 28 28 30 32 31 28 24 24 26 27 26 25 24 23 24 23 22 23 26 27 29 31 35 39 42 45 47 48 51 53 53 54 56 55 48
31 27 22 24 28 30 31 33 28 26 25 24 24 23 23 22 19 19 19 22 24 25 28 32 36 38 40 41 42 45 49 50 53 52 51 53 54 49
24 23 23 25 27 29 27 25 26 24 22 21 20 19 18 17 16 17 21 21 24 28 33 35 38 40 41 43 45 47 48 52 52 51 50 51 49 46
25 26 28 28 27 25 25 24 21 19 18 17 17 15 14 15 18 19 20 24 27 30 33 35 37 40 42 44 46 46 43 41 42 44 45 49 50 50
22 22 22 20 19 19 19 18 18 18 17 15 14 14 16 16 16 20 23 26 29 31 33 35 38 40 42 43 44 45 45 44 38 34 33 38 44 49
17 17 17 18 18 19 19 19 19 17 16 17 15 14 13 15 19 22 24 27 30 32 33 35 37 39 41 42 42 42 41 41 40 39 31 31 32 34
Wind_Direction
234 234 235 236 237 239 241 245 247 248 250 250 254 256 258 260 269 274 280 284 286 290 294 300 304 303 306 308 306 306 307 305 302 300 300 301 302 300
231 233 235 235 238 239 243 246 250 252 250 248 252 253 259 263 268 274 278 284 289 290 294 301 307 311 307 312 314 308 303 304 303 300 297 293 294 297
229 231 233 236 240 245 249 252 252 252 249 242 247 255 258 263 268 273 278 286 286 287 295 301 301 307 298 307 306 303 302 301 304 294 297 297 302 306
232 234 235 237 243 245 255 258 255 249 245 238 243 251 258 264 267 282 283 283 287 292 292 295 291 307 300 302 310 307 297 302 300 303 302 302 304 303
232 236 237 241 245 251 261 248 251 246 245 240 241 250 259 268 272 275 280 282 288 288 292 292 295 300 303 303 306 301 301 302 295 295 299 301 302 302
231 234 237 240 248 256 256 250 247 247 248 250 247 248 260 266 272 277 282 282 286 286 293 297 294 300 289 298 299 295 296 296 297 298 297 299 301 302
232 233 235 238 241 264 251 247 246 249 251 254 256 260 264 273 276 278 282 280 287 287 293 299 296 294 288 296 299 298 297 298 297 298 300 301 302 303
230 232 236 249 244 253 251 247 245 251 254 254 256 264 271 276 283 283 277 283 274 287 289 291 291 291 293 295 295 295 296 296 298 300 302 302 304 304
230 232 239 249 247 246 251 249 247 252 258 260 264 268 274 281 282 283 278 278 284 277 298 285 290 289 290 294 295 294 295 297 300 303 303 304 305 306
234 239 233 245 241 249 247 252 258 255 264 267 269 270 276 276 284 278 277 271 277 282 281 290 289 289 292 292 295 296 298 301 302 302 304 306 306 307
237 238 237 243 245 256 253 248 257 262 260 261 263 268 272 273 281 273 273 280 279 276 291 288 286 289 289 292 295 297 298 300 303 305 306 307 306 307
241 243 243 242 250 252 252 252 260 264 263 272 267 273 277 279 272 277 277 279 273 281 283 283 284 285 289 291 294 297 301 305 306 305 305 306 308 308
239 242 243 245 246 250 256 254 258 264 268 269 266 290 287 279 274 281 272 275 285 283 283 284 287 290 293 296 299 300 302 302 304 305 307 309 309 309
236 240 245 247 249 252 259 263 253 260 266 270 282 287 277 280 277 275 280 281 280 281 282 286 290 294 295 299 302 302 304 306 307 310 311 311 312 313
236 237 241 254 257 244 266 261 269 282 284 283 280 272 267 266 270 274 274 276 279 284 288 291 294 299 304 307 309 310 311 312 312 312 314 314 314 313
228 231 245 249 263 266 261 273 276 275 276 271 268 261 265 271 273 273 276 280 285 289 290 296 304 308 309 310 311 311 312 313 313 315 315 315 315 316
249 237 249 245 260 267 272 284 273 273 259 254 257 263 265 263 267 273 280 284 286 293 302 308 309 310 310 310 311 311 312 312 313 314 315 316 316 318
258 255 250 261 262 262 271 266 269 253 253 255 257 259 263 266 269 276 280 286 296 302 303 304 305 307 308 311 311 312 314 315 315 316 316 315 315 320
235 243 253 259 263 259 257 263 247 247 252 253 254 256 258 266 270 275 286 295 299 301 303 305 306 307 309 311 316 316 315 316 316 317 318 318 319 323
260 256 255 254 245 248 244 243 250 250 249 251 255 259 263 266 274 285 293 295 300 304 306 308 310 313 315 316 318 322 322 320 319 321 323 321 322 324
246 251 249 244 238 241 246 243 242 243 247 250 251 251 259 270 286 292 294 299 303 305 308 312 315 316 319 321 322 322 322 323 324 326 328 323 324 324
233 232 236 239 240 237 239 239 241 246 242 239 241 247 266 278 285 292 298 303 305 309 314 317 321 323 323 322 322 322 323 323 326 328 328 323 324 326
221 225 229 235 239 241 239 237 236 228 226 238 254 265 271 280 289 296 300 305 310 315 319 323 324 324 323 324 325 326 324 325 326 329 335 328 324 321